| time (UTC) | temp F | wind direction | speed MPH | gust MPH | rain 1hr in | rain 24hr in | rain mn in | humidity % | barometer mb |
| 20260504232721 | 68 | 233 | 9.0 | 15.0 | 0.00 | 0.00 | 0.00 | 32 | 1008.9 |
| 20260504231800 | 68 | 207 | 11.0 | 18.0 | 0.00 | 0.00 | 0.00 | 33 | 1009.0 |
| 20260504230900 | 70 | 261 | 7.0 | 19.0 | 0.00 | 0.00 | 0.00 | 32 | 1008.9 |
| 20260504230022 | 71 | 347 | 3.0 | 11.0 | 0.00 | 0.00 | 0.00 | 31 | 1008.9 |
| 20260504225401 | 71 | 344 | 6.0 | 11.0 | 0.00 | 0.00 | 0.00 | 31 | 1008.9 |
| 20260504224501 | 71 | 342 | 8.0 | 20.0 | 0.00 | 0.00 | 0.00 | 32 | 1009.1 |
| 20260504223601 | 72 | 7 | 11.0 | 21.0 | 0.00 | 0.00 | 0.00 | 31 | 1009.0 |
| 20260504222701 | 73 | 16 | 7.0 | 16.0 | 0.00 | 0.00 | 0.00 | 31 | 1009.0 |
| 20260504221800 | 73 | 3 | 3.0 | 6.0 | 0.00 | 0.00 | 0.00 | 30 | 1009.1 |
| 20260504220900 | 73 | 259 | 3.0 | 16.0 | 0.00 | 0.00 | 0.00 | 29 | 1008.9 |
| 20260504220001 | 72 | 212 | 5.0 | 16.0 | 0.00 | 0.00 | 0.00 | 30 | 1009.0 |
| 20260504215400 | 71 | 218 | 8.0 | 16.0 | 0.00 | 0.00 | 0.00 | 31 | 1009.1 |
| 20260504214500 | 69 | 204 | 9.0 | 15.0 | 0.00 | 0.00 | 0.00 | 33 | 1009.3 |
| 20260504213601 | 69 | 199 | 11.0 | 16.0 | 0.00 | 0.00 | 0.00 | 34 | 1009.4 |
| 20260504212700 | 69 | 199 | 11.0 | 16.0 | 0.00 | 0.00 | 0.00 | 34 | 1009.4 |
| 20260504211800 | 69 | 200 | 12.0 | 16.0 | 0.00 | 0.00 | 0.00 | 34 | 1009.3 |
| 20260504210900 | 71 | 182 | 9.0 | 15.0 | 0.00 | 0.00 | 0.00 | 32 | 1009.5 |
| 20260504210001 | 72 | 124 | 6.0 | 15.0 | 0.00 | 0.00 | 0.00 | 31 | 1009.6 |
| 20260504205400 | 72 | 121 | 7.0 | 13.0 | 0.00 | 0.00 | 0.00 | 31 | 1009.5 |
| 20260504204500 | 73 | 119 | 8.0 | 15.0 | 0.00 | 0.00 | 0.00 | 30 | 1009.6 |
| 20260504203600 | 73 | 121 | 10.0 | 15.0 | 0.00 | 0.00 | 0.00 | 29 | 1009.5 |
| 20260504202700 | 74 | 119 | 9.0 | 16.0 | 0.00 | 0.00 | 0.00 | 27 | 1009.6 |
| 20260504201801 | 73 | 127 | 9.0 | 16.0 | 0.00 | 0.00 | 0.00 | 28 | 1009.6 |
| 20260504200901 | 73 | 113 | 8.0 | 14.0 | 0.00 | 0.00 | 0.00 | 29 | 1009.7 |
| 20260504200001 | 73 | 108 | 7.0 | 15.0 | 0.00 | 0.00 | 0.00 | 30 | 1009.8 |
| 20260504195401 | 72 | 103 | 9.0 | 15.0 | 0.00 | 0.00 | 0.00 | 29 | 1009.8 |
| 20260504194501 | 73 | 107 | 8.0 | 15.0 | 0.00 | 0.00 | 0.00 | 28 | 1009.9 |
| 20260504193621 | 74 | 95 | 8.0 | 15.0 | 0.00 | 0.00 | 0.00 | 31 | 1010.0 |
| 20260504192700 | 73 | 95 | 9.0 | 14.0 | 0.00 | 0.00 | 0.00 | 28 | 1010.1 |
| 20260504191800 | 72 | 98 | 9.0 | 15.0 | 0.00 | 0.00 | 0.00 | 31 | 1010.2 |
| 20260504190901 | 72 | 94 | 11.0 | 18.0 | 0.00 | 0.00 | 0.00 | 30 | 1010.3 |
| 20260504190001 | 72 | 101 | 10.0 | 18.0 | 0.00 | 0.00 | 0.00 | 31 | 1010.5 |
| 20260504185422 | 72 | 102 | 9.0 | 16.0 | 0.00 | 0.00 | 0.00 | 31 | 1010.6 |
| 20260504184522 | 72 | 100 | 8.0 | 14.0 | 0.00 | 0.00 | 0.00 | 31 | 1010.6 |
| 20260504183622 | 72 | 94 | 9.0 | 18.0 | 0.00 | 0.00 | 0.00 | 32 | 1010.9 |
| 20260504182701 | 72 | 94 | 9.0 | 18.0 | 0.00 | 0.00 | 0.00 | 33 | 1011.0 |
| 20260504181822 | 71 | 99 | 10.0 | 15.0 | 0.00 | 0.00 | 0.00 | 32 | 1011.0 |
| 20260504180900 | 71 | 98 | 9.0 | 16.0 | 0.00 | 0.00 | 0.00 | 33 | 1011.2 |
| 20260504180001 | 71 | 99 | 8.0 | 18.0 | 0.00 | 0.00 | 0.00 | 33 | 1011.3 |
| 20260504175400 | 71 | 92 | 8.0 | 18.0 | 0.00 | 0.00 | 0.00 | 33 | 1011.4 |
| 20260504174501 | 70 | 90 | 8.0 | 14.0 | 0.00 | 0.00 | 0.00 | 34 | 1011.5 |
| 20260504173600 | 69 | 97 | 8.0 | 14.0 | 0.00 | 0.00 | 0.00 | 35 | 1011.6 |
| 20260504172701 | 69 | 93 | 9.0 | 15.0 | 0.00 | 0.00 | 0.00 | 34 | 1011.7 |
| 20260504171801 | 68 | 88 | 8.0 | 15.0 | 0.00 | 0.00 | 0.00 | 36 | 1011.9 |
| 20260504170901 | 68 | 93 | 7.0 | 12.0 | 0.00 | 0.00 | 0.00 | 37 | 1011.9 |
| 20260504150901 | 63 | 125 | 2.0 | 6.0 | 0.00 | 0.00 | 0.00 | 51 | 1012.6 |
| 20260504140923 | 58 | 93 | 2.0 | 5.0 | 0.00 | 0.00 | 0.00 | 55 | 1012.7 |
| 20260504081823 | 55 | 33 | 1.0 | 4.0 | 0.00 | 0.00 | 0.00 | 49 | 1012.2 |
| 20260504080902 | 55 | 22 | 3.0 | 8.0 | 0.00 | 0.00 | 0.00 | 46 | 1012.3 |
| 20260504050002 | 62 | 24 | 5.0 | 8.0 | 0.00 | 0.00 | 0.00 | 32 | 1011.8 |
| 20260504045402 | 61 | 16 | 6.0 | 8.0 | 0.00 | 0.00 | 0.00 | 31 | 1011.9 |
| 20260504044502 | 60 | 17 | 4.0 | 8.0 | 0.00 | 0.00 | 0.00 | 31 | 1011.9 |
| 20260504043602 | 60 | 30 | 4.0 | 7.0 | 0.00 | 0.00 | 0.00 | 32 | 1011.9 |
| 20260504042702 | 60 | 18 | 1.0 | 5.0 | 0.00 | 0.00 | 0.00 | 35 | 1011.9 |
| 20260504041802 | 61 | 139 | 2.0 | 5.0 | 0.00 | 0.00 | 0.00 | 32 | 1011.9 |
| 20260504040902 | 62 | 218 | 1.0 | 4.0 | 0.00 | 0.00 | 0.00 | 31 | 1011.9 |
| 20260504040002 | 62 | 238 | 0.0 | 5.0 | 0.00 | 0.00 | 0.00 | 30 | 1011.8 |
| 20260504035402 | 63 | 264 | 2.0 | 8.0 | 0.00 | 0.00 | 0.00 | 30 | 1011.8 |
| 20260504034502 | 64 | 278 | 5.0 | 8.0 | 0.00 | 0.00 | 0.00 | 29 | 1011.8 |
| 20260504033623 | 65 | 277 | 6.0 | 9.0 | 0.00 | 0.00 | 0.00 | 28 | 1011.7 |
| 20260504032702 | 65 | 268 | 6.0 | 9.0 | 0.00 | 0.00 | 0.00 | 27 | 1011.7 |
| 20260504031802 | 66 | 262 | 6.0 | 9.0 | 0.00 | 0.00 | 0.00 | 27 | 1011.6 |
| 20260504030902 | 66 | 263 | 5.0 | 8.0 | 0.00 | 0.00 | 0.00 | 26 | 1011.6 |
| 20260504030002 | 67 | 260 | 5.0 | 8.0 | 0.00 | 0.00 | 0.00 | 25 | 1011.6 |
| 20260504025402 | 67 | 257 | 6.0 | 9.0 | 0.00 | 0.00 | 0.00 | 25 | 1011.6 |
| 20260504024502 | 68 | 259 | 7.0 | 10.0 | 0.00 | 0.00 | 0.00 | 25 | 1011.6 |
| 20260504023602 | 68 | 256 | 7.0 | 10.0 | 0.00 | 0.00 | 0.00 | 25 | 1011.5 |
| 20260504022702 | 68 | 245 | 6.0 | 8.0 | 0.00 | 0.00 | 0.00 | 26 | 1011.5 |
| 20260504021802 | 68 | 254 | 5.0 | 8.0 | 0.00 | 0.00 | 0.00 | 24 | 1011.5 |
| 20260504020902 | 69 | 278 | 4.0 | 7.0 | 0.00 | 0.00 | 0.00 | 23 | 1011.4 |
| 20260504020002 | 69 | 294 | 6.0 | 10.0 | 0.00 | 0.00 | 0.00 | 23 | 1011.4 |
| 20260504015402 | 70 | 294 | 6.0 | 10.0 | 0.00 | 0.00 | 0.00 | 23 | 1011.4 |
| 20260504014523 | 71 | 298 | 7.0 | 11.0 | 0.00 | 0.00 | 0.00 | 22 | 1011.5 |
| 20260504013602 | 71 | 288 | 7.0 | 11.0 | 0.00 | 0.00 | 0.00 | 22 | 1011.5 |
| 20260504012702 | 71 | 277 | 8.0 | 11.0 | 0.00 | 0.00 | 0.00 | 22 | 1011.6 |
| 20260504011802 | 71 | 281 | 7.0 | 12.0 | 0.00 | 0.00 | 0.00 | 22 | 1011.6 |
| 20260504010902 | 72 | 239 | 5.0 | 8.0 | 0.00 | 0.00 | 0.00 | 20 | 1011.7 |
| 20260504010002 | 72 | 202 | 6.0 | 9.0 | 0.00 | 0.00 | 0.00 | 21 | 1011.9 |
| 20260504005402 | 73 | 196 | 5.0 | 9.0 | 0.00 | 0.00 | 0.00 | 21 | 1011.9 |
| 20260504004502 | 73 | 174 | 6.0 | 11.0 | 0.00 | 0.00 | 0.00 | 19 | 1012.1 |
| 20260504003602 | 74 | 176 | 4.0 | 9.0 | 0.00 | 0.00 | 0.00 | 19 | 1012.1 |
| 20260504002702 | 74 | 143 | 4.0 | 10.0 | 0.00 | 0.00 | 0.00 | 18 | 1012.1 |
| 20260504001802 | 75 | 139 | 6.0 | 10.0 | 0.00 | 0.00 | 0.00 | 19 | 1012.2 |
| 20260504000902 | 76 | 124 | 6.0 | 10.0 | 0.00 | 0.00 | 0.00 | 18 | 1012.2 |
| 20260504000024 | 77 | 134 | 4.0 | 9.0 | 0.00 | 0.00 | 0.00 | 18 | 1012.2 |
| 20260503235423 | 77 | 162 | 2.0 | 7.0 | 0.00 | 0.00 | 0.00 | 18 | 1012.2 |
| 20260503234502 | 77 | 174 | 2.0 | 6.0 | 0.00 | 0.00 | 0.00 | 15 | 1012.2 |
| 20260503233623 | 78 | 44 | 1.0 | 4.0 | 0.00 | 0.00 | 0.00 | 16 | 1012.2 |